EHI
0 0 0 0 0 0 0 0 0 0 0 0 0 0 0 0 0 1 2 2 2 2 1 0 0 0 0 0 0 0 0 0 0 0 0 0 0 0 0 0 0 0 0
0 0 0 0 0 0 0 0 0 0 0 0 0 0 0 0 0 0 1 1 3 3 2 1 1 0 0 0 0 0 0 0 0 0 0 0 0 0 0 0 0 0 0
0 0 0 0 0 0 0 0 0 0 0 0 0 0 0 0 0 0 0 0 2 3 3 3 2 1 0 0 0 0 0 0 0 0 0 0 0 0 0 0 0 0 0
0 0 0 0 0 0 0 0 0 0 0 0 0 0 0 0 0 0 0 0 0 1 1 2 3 3 1 0 0 0 0 0 0 0 0 0 0 0 0 0 0 0 0
0 0 0 0 0 0 0 0 0 0 0 0 0 0 0 0 0 0 0 0 0 0 0 0 1 2 2 1 0 0 0 0 0 0 0 0 0 0 0 0 0 0 0
0 0 0 0 0 0 0 0 0 0 0 0 0 0 0 0 0 0 0 0 0 0 0 0 0 1 2 2 1 0 0 0 0 0 0 0 0 0 0 0 0 0 0
0 0 0 0 0 0 0 0 0 0 0 0 0 0 0 0 0 0 0 1 1 0 0 0 0 0 1 1 0 0 0 0 0 0 0 0 0 0 0 0 0 0 0
0 0 0 0 0 0 0 0 0 0 0 0 0 0 0 0 0 0 0 1 1 1 1 1 0 0 0 0 0 0 0 0 0 0 0 0 0 0 0 0 0 0 0
0 0 0 0 0 0 0 0 0 0 0 0 0 0 0 0 0 0 0 1 1 1 2 1 0 0 0 0 0 0 0 0 0 0 0 0 0 0 0 0 0 0 0
0 0 0 0 0 0 0 0 0 0 0 0 0 0 0 0 0 0 0 0 0 1 1 1 0 0 0 0 0 0 0 0 0 0 0 0 0 0 0 0 0 0 0
0 0 0 0 0 0 0 0 0 0 0 0 0 0 0 0 0 0 0 0 0 0 0 0 0 0 0 0 0 0 0 0 0 0 0 0 0 0 0 0 0 0 0
0 0 0 0 0 0 0 0 0 0 0 0 0 0 0 0 0 0 0 0 0 0 0 1 1 0 0 0 0 0 0 0 0 0 0 0 0 0 0 0 0 0 0
0 0 0 0 0 0 0 0 0 0 0 0 0 0 0 0 0 0 0 0 0 0 0 1 1 0 0 0 0 0 0 0 0 0 0 0 0 0 0 0 0 0 0
0 0 0 0 0 0 0 0 0 0 0 0 0 0 0 0 0 0 0 0 0 0 0 1 1 0 0 0 0 0 0 0 0 0 0 0 0 0 0 0 0 0 0
0 0 0 0 0 0 0 0 0 0 0 0 0 0 0 0 0 0 0 0 0 0 0 0 0 0 0 0 0 0 0 0 0 0 0 0 0 0 0 0 0 0 0
0 0 0 0 0 0 0 0 0 0 0 0 0 0 0 0 0 0 0 0 0 0 0 0 0 0 0 0 0 0 0 0 0 0 0 0 0 0 0 0 0 0 0
0 0 0 0 0 0 0 0 0 0 0 0 0 0 0 0 0 0 0 0 0 0 0 0 0 0 0 0 0 0 0 0 0 0 0 0 0 0 0 0 0 0 0
0 0 0 0 0 0 0 0 0 0 0 0 0 0 0 0 0 0 0 0 0 0 0 0 0 0 0 0 0 0 0 0 0 0 0 0 0 0 0 0 0 0 0
0 0 0 0 0 0 0 0 0 0 0 0 0 0 0 0 0 0 0 0 0 0 0 0 0 0 0 0 0 0 0 0 0 0 0 0 0 0 0 0 0 0 0
0 0 0 0 0 0 0 0 0 0 0 0 0 0 0 0 0 0 0 0 0 0 0 0 0 0 0 0 0 0 0 0 0 0 0 0 0 0 0 0 0 0 0
0 0 0 0 0 0 0 0 0 0 0 0 0 0 0 0 0 0 0 0 0 0 0 0 0 0 0 0 0 0 0 0 0 0 0 0 0 0 0 0 0 0 0
0 0 0 0 0 0 0 0 0 0 0 0 0 0 0 0 0 0 0 0 0 0 0 0 0 0 0 0 0 0 0 0 0 0 0 0 0 0 0 0 0 0 0
0 0 0 0 0 0 0 0 0 0 0 0 0 0 0 0 0 0 0 0 0 0 0 0 0 0 0 0 0 0 0 0 0 0 0 0 0 0 0 0 0 0 0
0 0 0 0 0 0 0 0 0 0 0 0 0 0 0 0 0 0 0 0 0 0 0 0 0 0 0 0 0 0 0 0 0 0 0 0 0 0 0 0 0 0 0
0 0 0 0 0 0 0 0 0 0 0 0 0 0 0 0 0 0 0 0 0 0 0 0 0 0 0 0 0 0 0 0 0 0 0 0 0 0 0 0 0 0 0
0 0 0 0 0 0 0 0 0 0 0 0 0 0 0 0 0 0 0 0 0 0 0 0 0 0 0 0 0 0 0 0 0 0 0 0 0 0 0 0 0 0 0
Wind_Speed
4 3 3 3 4 4 3 3 3 3 2 2 1 1 1 2 2 2 4 6 4 4 4 4 3 3 3 3 3 4 4 5 6 7 8 9 9 10 11 10 11 12 12
4 4 4 4 4 4 4 3 3 2 1 2 2 1 1 1 2 1 2 5 6 5 5 4 4 3 3 3 3 4 4 4 5 6 7 8 9 9 10 10 10 11 12
5 5 5 4 4 4 4 3 3 2 1 1 1 2 2 2 2 2 2 2 3 6 6 5 4 4 3 3 3 3 4 4 5 5 6 7 7 8 8 9 9 10 11
6 5 4 5 5 4 3 3 3 2 2 1 2 2 2 2 2 2 2 2 2 2 5 6 5 4 3 3 3 3 3 4 4 4 5 5 6 6 6 7 8 9 9
6 6 5 5 5 4 4 4 4 3 3 2 2 2 3 3 2 2 2 3 3 2 2 5 4 4 3 3 3 3 3 3 3 4 4 4 5 5 5 6 7 7 8
6 5 4 6 5 4 4 4 4 4 3 2 2 3 3 3 3 3 2 2 2 2 2 2 2 4 5 3 3 3 3 2 3 3 3 4 4 4 4 5 6 7 7
5 5 4 6 5 5 5 5 4 4 4 3 2 3 4 4 4 3 3 2 3 2 2 2 2 2 3 5 3 3 2 2 2 2 3 4 4 3 4 4 5 6 6
5 4 5 4 5 4 6 6 4 3 3 3 2 1 2 4 4 4 3 2 3 2 2 2 2 2 1 1 5 4 3 2 2 1 2 3 4 4 4 4 4 5 6
4 5 6 5 5 5 5 5 5 5 4 4 5 3 2 2 2 3 4 3 3 2 2 2 2 2 2 2 2 4 3 2 1 1 1 2 3 4 5 4 4 4 6
4 4 5 5 5 5 5 5 5 4 4 4 4 4 4 3 1 1 2 4 4 3 3 2 2 2 2 2 3 5 3 2 1 0 1 2 2 3 5 5 5 5 6
4 4 4 4 4 4 5 5 5 5 4 4 4 3 3 2 2 1 2 2 3 4 3 3 3 2 2 2 2 5 4 3 2 0 0 2 3 3 4 6 6 6 6
3 5 4 3 4 4 5 4 4 5 5 5 4 4 3 3 3 2 2 2 2 3 3 3 3 3 2 2 4 5 4 3 2 1 1 1 2 3 4 6 7 8 8
3 4 3 4 4 4 4 4 4 4 5 5 5 4 4 3 3 3 2 2 2 1 2 2 3 3 3 2 3 3 3 3 2 2 1 1 0 1 2 5 6 7 8
3 4 3 4 4 4 3 3 3 4 4 4 5 4 3 4 4 3 3 3 1 1 2 3 2 4 3 3 4 4 2 3 2 2 2 1 1 1 1 3 4 5 7
3 3 3 3 4 4 4 3 3 4 4 4 4 4 4 3 3 3 3 3 3 2 2 3 2 3 3 3 3 2 2 4 2 2 2 1 1 1 2 2 2 3 4
3 3 3 3 4 4 4 4 4 4 4 4 3 4 4 4 4 3 3 3 3 3 2 3 3 4 4 3 2 3 2 1 1 0 1 2 2 2 2 3 3 3 4
3 3 3 3 4 4 4 4 4 4 4 4 4 4 5 5 4 3 3 3 3 3 2 2 2 3 3 4 3 3 2 2 1 2 1 1 2 2 2 3 3 3 4
2 2 3 3 3 4 4 4 3 3 4 4 5 4 4 4 4 4 3 3 3 3 3 3 3 3 4 4 4 4 3 2 2 2 1 2 2 2 3 3 4 4 5
2 2 3 3 3 3 3 3 3 3 3 4 4 5 5 4 4 4 3 3 3 3 3 3 3 3 3 4 4 4 3 2 3 1 3 4 4 4 4 4 4 5 6
3 2 3 3 3 3 3 3 3 3 3 3 3 4 5 5 5 5 4 4 4 3 3 3 3 3 3 4 4 4 4 3 3 3 2 3 3 5 7 6 6 6 6
3 3 2 3 3 3 5 5 3 3 3 3 3 4 5 6 7 6 5 5 5 4 3 3 4 4 4 4 4 4 5 5 4 3 3 3 3 4 5 7 8 7 7
3 3 2 3 3 4 6 6 5 3 3 3 3 3 3 3 3 2 3 5 6 5 6 5 4 5 6 5 5 5 5 5 5 2 4 5 4 5 5 5 3 6 8
3 3 2 2 2 5 4 4 5 3 3 3 4 3 3 4 5 5 3 2 1 1 4 6 7 7 7 7 7 7 7 7 7 5 5 6 5 6 5 4 3 6 8
4 3 2 2 2 3 3 2 3 2 2 2 3 4 3 4 7 8 7 5 5 4 4 5 6 7 7 8 8 8 8 8 8 5 5 6 6 6 5 5 4 6 7
4 4 3 2 2 3 3 1 5 1 1 1 2 3 4 4 7 9 7 6 5 4 1 2 5 6 7 8 7 7 6 7 7 6 4 5 6 7 6 6 4 6 7
4 3 3 2 2 1 3 1 6 2 1 1 1 1 3 5 6 9 7 6 6 6 7 5 5 5 6 4 5 6 6 6 7 6 4 5 6 6 7 5 5 4 5
Wind_Direction
28 26 29 19 11 5 358 343 345 17 349 12 17 9 14 42 38 36 88 82 65 59 58 55 57 63 69 78 75 73 71 73 68 67 66 64 64 61 58 68 78 85 93
30 15 26 21 14 5 358 339 6 358 0 22 26 47 17 32 59 58 81 107 97 73 57 50 60 69 74 75 82 82 85 89 81 78 72 68 68 68 65 67 79 84 89
28 24 17 21 14 7 4 1 11 352 25 42 50 44 53 21 41 61 69 68 105 107 84 57 59 66 72 73 84 88 90 101 96 94 87 79 76 75 75 74 80 85 90
36 31 24 23 15 11 12 18 14 18 40 37 44 44 71 79 65 63 83 85 57 76 107 81 60 61 67 73 84 89 96 104 107 105 103 96 89 86 85 84 86 92 96
30 39 25 15 18 18 16 17 28 19 37 42 68 69 65 68 64 70 73 72 74 57 81 110 100 75 69 73 81 86 100 116 122 120 115 109 104 99 99 97 97 101 105
30 31 29 27 21 27 22 28 34 33 34 36 63 79 77 77 73 60 52 67 59 54 60 82 125 113 94 79 79 82 87 104 130 134 135 128 119 114 114 117 115 115 120
32 37 22 31 20 30 24 26 24 46 43 29 68 97 100 82 66 64 47 44 64 55 64 76 75 76 122 118 94 83 78 90 118 135 152 152 140 133 133 135 133 135 135
30 28 32 33 35 31 33 29 30 21 43 29 7 31 106 112 75 58 52 52 46 62 63 67 79 76 57 110 102 87 70 71 107 131 158 168 162 158 156 155 153 150 153
33 28 30 28 29 31 37 28 27 28 34 47 33 9 16 56 69 69 53 55 49 47 58 55 68 70 77 80 107 103 68 59 82 109 137 164 179 174 172 172 171 167 168
46 34 34 28 32 37 38 37 39 29 25 40 56 40 30 32 352 82 69 53 51 53 46 44 54 55 55 72 78 68 59 43 35 88 142 162 173 179 182 182 178 173 165
57 49 35 32 35 40 41 39 36 30 32 29 31 36 39 40 4 41 68 48 55 55 45 37 40 41 37 44 47 64 52 32 16 359 195 182 189 194 198 196 188 184 182
78 66 44 39 39 41 40 37 41 43 35 33 27 32 28 22 21 25 42 45 50 51 49 48 35 36 31 30 50 49 40 27 22 28 38 165 182 199 215 212 203 196 192
79 62 46 44 41 38 39 37 48 42 43 35 30 28 30 31 18 8 15 29 33 52 60 65 47 36 28 33 55 19 73 45 26 26 31 58 148 220 245 226 216 210 206
65 58 49 45 45 38 40 39 34 42 37 41 38 32 29 32 21 15 6 352 356 38 49 54 46 43 23 23 38 308 81 73 35 27 26 43 37 296 287 249 227 223 219
72 70 66 62 55 42 35 34 38 37 34 29 28 36 33 38 26 23 12 354 340 342 16 31 24 31 13 23 8 330 16 68 34 16 2 0 339 295 280 277 247 241 232
80 77 77 77 73 60 53 41 43 32 36 44 22 26 25 31 29 22 10 5 354 342 347 10 4 4 357 346 10 340 12 137 161 344 330 325 312 302 289 278 249 250 243
116 104 71 58 59 56 58 57 42 41 32 42 44 42 38 28 27 26 14 11 6 355 344 347 350 357 343 345 349 337 328 296 137 145 251 308 306 293 299 296 277 267 260
95 93 79 65 58 47 41 42 38 37 34 32 36 38 37 39 28 21 7 8 9 352 338 336 338 350 338 344 338 323 316 316 310 130 213 262 270 260 260 277 284 276 265
114 105 95 69 62 52 46 42 38 29 32 29 25 23 23 24 19 25 5 5 357 352 335 318 330 338 323 337 329 315 304 308 297 228 219 223 235 247 246 249 263 268 261
117 96 86 75 62 53 44 37 35 24 27 31 29 23 17 13 7 2 358 357 346 339 334 321 322 322 319 327 315 315 312 303 293 289 284 269 238 236 237 236 241 251 253
121 106 93 81 68 49 32 15 23 18 17 20 25 31 35 27 20 6 351 343 337 326 324 322 320 317 319 323 324 320 310 305 294 286 295 287 270 264 247 228 228 236 241
126 115 99 78 68 60 43 15 346 13 20 18 25 28 42 35 25 13 360 348 341 331 329 322 314 316 321 326 325 308 307 304 300 303 296 294 286 278 277 275 259 226 232
139 129 109 98 85 76 53 29 354 345 11 13 8 21 23 24 353 354 345 259 262 275 300 310 313 318 319 328 320 310 304 300 297 301 295 287 285 279 278 274 253 250 243
156 154 137 131 125 90 56 22 317 294 7 14 9 5 0 10 18 347 331 328 333 340 332 312 316 320 324 324 316 304 299 293 288 279 273 280 285 284 285 280 244 246 251
168 167 159 177 183 128 84 342 290 286 312 15 22 13 356 4 24 335 321 330 327 337 340 271 297 294 297 295 302 299 297 293 293 294 288 282 292 297 292 284 269 233 240
177 177 174 187 190 127 86 339 294 283 294 338 355 25 51 10 0 334 325 330 326 333 325 315 293 274 287 284 266 291 303 298 298 296 300 298 294 300 293 285 288 283 262